This is the latest recevied weather packets stored in our database for station/object IZ6UQU-13. If no packets are shown the sender has not sent any weather packets the latest 10 day(s).
| Time | Temp. | Humidity | Pressure | Rain* | Wind** | Luminosity | Snow |
|---|---|---|---|---|---|---|---|
| 1777479301 | 20° C | 43% | 955.6 hPa | 0 mm | - | - | - |
| 1777479001 | 20° C | 42% | 955.6 hPa | 0 mm | - | - | - |
| 1777478701 | 20° C | 42% | 955.7 hPa | 0 mm | - | - | - |
| 1777478401 | 20° C | 42% | 955.6 hPa | 0 mm | - | - | - |
| 1777478101 | 20° C | 42% | 955.7 hPa | 0 mm | - | - | - |
| 1777477801 | 20° C | 42% | 955.7 hPa | 0 mm | - | - | - |
| 1777477501 | 20.56° C | 42% | 955.7 hPa | 0 mm | - | - | - |
| 1777477201 | 20.56° C | 42% | 955.6 hPa | 0 mm | - | - | - |
| 1777476901 | 20.56° C | 41% | 955.7 hPa | 0 mm | - | - | - |
| 1777476601 | 21.11° C | 42% | 955.7 hPa | 0 mm | - | - | - |
| 1777476301 | 21.11° C | 42% | 955.6 hPa | 0 mm | - | - | - |
| 1777476001 | 21.11° C | 42% | 955.5 hPa | 0 mm | - | - | - |
| 1777475701 | 21.11° C | 41% | 955.5 hPa | 0 mm | - | - | - |
| 1777475401 | 21.67° C | 39% | 955.6 hPa | 0 mm | - | - | - |
| 1777475101 | 21.67° C | 40% | 955.5 hPa | 0 mm | - | - | - |
| 1777474801 | 22.22° C | 39% | 955.5 hPa | 0 mm | - | - | - |
| 1777474501 | 22.22° C | 36% | 955.4 hPa | 0 mm | - | - | - |
| 1777474201 | 22.78° C | 38% | 955.5 hPa | 0 mm | - | - | - |
| 1777473901 | 22.78° C | 38% | 955.5 hPa | 0 mm | - | - | - |
| 1777473601 | 22.78° C | 38% | 955.5 hPa | 0 mm | - | - | - |
| 1777473301 | 22.78° C | 38% | 955.5 hPa | 0 mm | - | - | - |
| 1777473001 | 22.22° C | 38% | 955.5 hPa | 0 mm | - | - | - |
| 1777472701 | 22.22° C | 38% | 955.6 hPa | 0 mm | - | - | - |
| 1777472401 | 22.22° C | 38% | 955.5 hPa | 0 mm | - | - | - |
| 1777472101 | 22.22° C | 38% | 955.5 hPa | 0 mm | - | - | - |
* Rain latest hour (hover to see other rain measurements)
** Current wind speed in m/s (hover to see current wind gust speed)